Regional Weather Roundup
Issued by NWS Albany, NY

Current Version | Previous Version | Text Only | Print | Product List | Glossary On
Versions: 1 2 3 4 5 6 7 8 9 10 11 12 13 14 15 16 17 18 19 20 21 22 23 24 25 26 27 28 29 30 31 32 33 34 35 36 37 38 39 40 41 42 43 44 45 46 47
000 ASUS41 KALY 290410 RWRALY NEW YORK STATE HOURLY WEATHER ROUNDUP NATIONAL WEATHER SERVICE ALBANY NY 1100 PM EST WED JAN 28 2015 NOTE: "FAIR" INDICATES FEW OR NO CLOUDS BELOW 12,000 FEET WITH NO SIGNIFICANT WEATHER AND/OR NO OBSTRUCTIONS TO VISIBILITY. NYZ032-033-038>043-046>054-057>066-NYZ062>081-290500- EAST CITY SKY/WX TMP DP RH WIND PRES REMARKS ALBANY PTCLDY 6 -3 66 CALM 30.31R GLENS FALLS PTCLDY -1 -7 75 CALM 30.30R POUGHKEEPSIE CLEAR 6 -1 73 CALM 30.29R NEWBURGH CLEAR 9 1 72 CALM 30.26R MONTGOMERY CLEAR 6 0 76 CALM 30.26R WHITE PLAINS CLEAR 19 0 43 NW16 30.22R WCI 4 ISLIP CLEAR 23 5 46 N14 30.23R WCI 11 NEW YORK CITY CLEAR 26 6 42 N9 30.27R WCI 17 CENTRAL PARK CLEAR 26 0 32 VRB3 30.28R $$ NYZ005>009-017-018-044>046-055-056-290500- CENTRAL CITY SKY/WX TMP DP RH WIND PRES REMARKS FULTON PTCLDY 6 0 76 SE3 30.32R SYRACUSE MOCLDY 8 3 80 CALM 30.32R ROME PTCLDY 2 -4 76 CALM 30.35R ELMIRA MOCLDY 2 -2 83 CALM 30.30S BINGHAMTON PTCLDY 13 5 70 NW6 30.22S WCI 4 MONTICELLO CLEAR 12 0 57 W6 30.21R WCI 3 $$ NYZ026>034-041>043-290500- NORTH CITY SKY/WX TMP DP RH WIND PRES REMARKS WATERTOWN PTCLDY -1 -7 75 E5 30.32R WCI -11 FORT DRUM NOT AVBL MASSENA PTCLDY 0 -9 65 CALM 30.33S SARANAC LAKE MOCLDY -11 -14 86 CALM 30.20R PLATTSBURGH PTCLDY 1 -3 83 CALM 30.29R $$ NYZ001>004-010>016-019>021-290500- WEST CITY SKY/WX TMP DP RH WIND PRES REMARKS NIAGARA FALLS MOCLDY 15 11 83 S7 30.28S WCI 5 BUFFALO PTCLDY 13 7 77 S6 30.28S WCI 4 DUNKIRK MOCLDY 5 1 83 SW3 30.29S JAMESTOWN PTCLDY 12 1 62 S6 30.21R WCI 3 WELLSVILLE PTCLDY 11 -3 53 SE3 30.20F ROCHESTER MOCLDY 5 0 79 SW3 30.30F PENN YAN PTCLDY 3 -2 79 CALM 30.28F $$ KEY WCI = WIND CHILL INDEX VSB = VISIBILITY HX = HEAT INDEX $$

USA.gov is the U.S. government's official web portal to all federal, state and local government web resources and services.